www.pogodaiklimat.ru

Погода и климат >> Архив погоды >> Австралия >> Северная территория >> Дерби


ПОГОДА в Дерби

  • Прогноз погоды в Дерби
  • Монитор погоды в Дерби

АРХИВ ПОГОДЫ в Дерби

Время (UTC), дата Ветер
(напр.,м/с)
 
Видим.   Явления Облачность Т
(С)
Тd
(С)
f
(%)
Тe
(С)
Тes
(С)
Комфортность P
(гПа)
Po
(гПа)
Тmin
(С)
Tmax
(С)
R
(мм)
R24
(мм)
S
(см)
01 16.05 В 4 н/о н/о +29.9 +5.2 21 +28 +28 жарко 1014.7 1013.9 +16.2
03 16.05 С 4 н/о н/о +33.8 +6.2 18 +32 +32 жарко 1013.4 1012.6
04 16.05 СВ 3 н/о н/о +35.3 +7.4 18 +33 +33 жарко 1012.2 1011.4
06 16.05 З 6 н/о н/о +34.7 +6.9 18 +33 +33 жарко 1010.7 1009.9
07 16.05 СЗ 6 н/о 1/0
[]
+33.7 +6.9 19 +32 +34 жарко 1010.6 1009.8
09 16.05 СЗ 4 н/о н/о +30.7 +10.1 28 +30 +30 жарко 1011.2 1010.4
10 16.05 СЗ 3 н/о н/о +27.6 +11.2 36 +28 +28 жарко 1011.9 1011.1
12 16.05 СЗ 2 н/о н/о +24.8 +14.9 54 +28 +28 жарко 1013.3 1012.5
13 16.05 СЗ 4 н/о н/о +23.8 +16.3 63 +27 +27 жарко 1013.6 1012.8 +36.2
15 16.05 Ю 3 н/о н/о +22.8 +12.4 52 +26 +26 жарко 1013.4 1012.6
16 16.05 Ю 3 н/о н/о +22.0 +10.8 49 +24 +24 комфорт 1012.9 1012.1
18 16.05 Ю 3 н/о н/о +19.8 +11.6 59 +22 +22 комфорт 1012.5 1011.7
19 16.05 ЮВ 2 н/о н/о +18.5 +10.6 60 +19 +19 1012.2 1011.4
21 16.05 ЮВ 2 н/о н/о +17.9 +12.1 69 +18 +18 1012.4 1011.6
22 16.05 ЮВ 2 н/о н/о +17.3 +12.8 75 +18 +18 1012.9 1012.1
00 17.05 Ю 3 н/о н/о +23.6 +12.9 51 +26 +26 жарко 1013.5 1012.7
01 17.05 Ю 3 н/о н/о +26.8 +10.5 36 +28 +28 жарко 1013.7 1012.9 +17.3
03 17.05 Ю 3 н/о н/о +35.1 +9.5 21 +34 +34 очень
жарко
1012.1 1011.3
04 17.05 З 3 н/о н/о +35.1 +10.9 23 +34 +34 очень
жарко
1011.0 1010.2
06 17.05 СЗ 6 н/о н/о +35.2 +10.3 22 +34 +34 очень
жарко
1009.6 1008.8
07 17.05 СЗ 7 н/о н/о +33.9 +12.3 27 +34 +34 очень
жарко
1009.5 1008.7
09 17.05 СЗ 4 н/о н/о +31.4 +12.2 31 +32 +32 жарко 1009.9 1009.1
10 17.05 СЗ 3 н/о н/о +27.2 +15.6 49 +30 +30 душно 1010.7 1009.9
12 17.05 СЗ 5 н/о н/о +26.3 +16.8 56 +30 +30 душно 1012.4 1011.6
13 17.05 СЗ 2 н/о н/о +25.4 +14.8 52 +28 +28 жарко 1012.9 1012.1 +36.7
15 17.05 штиль 0 н/о н/о +22.0 +13.6 59 +25 +25 комфорт 1012.8 1012.0
16 17.05 Ю 2 н/о н/о +20.3 +12.8 62 +23 +23 комфорт 1012.6 1011.8
18 17.05 ЮВ 3 н/о н/о +20.5 +11.2 55 +23 +23 комфорт 1012.0 1011.2
19 17.05 ЮВ 3 н/о н/о +20.9 +12.1 57 +24 +24 комфорт 1012.4 1011.6
21 17.05 ЮВ 3 н/о н/о +19.3 +11.1 59 +21 +21 комфорт 1012.7 1011.9
22 17.05 Ю 3 н/о н/о +19.2 +11.5 61 +21 +21 комфорт 1013.3 1012.5
00 18.05 Ю 3 н/о н/о +23.5 +10.2 43 +25 +25 комфорт 1014.6 1013.8
01 18.05 ЮВ 3 н/о н/о +27.0 +8.4 31 +27 +27 жарко 1014.8 1014.0 +18.9
03 18.05 ЮВ 4 н/о н/о +36.6 +1.4 11 +33 +33 жарко 1013.2 1012.4
04 18.05 СЗ 4 н/о н/о +35.5 +8.3 19 +34 +34 очень
жарко
1012.1 1011.3
06 18.05 СЗ 6 н/о н/о +36.6 +4.8 14 +34 +34 очень
жарко
1010.5 1009.7
07 18.05 ЮВ 3 н/о н/о +37.3 +1.9 11 +34 +34 очень
жарко
1010.1 1009.3
09 18.05 СЗ 3 н/о н/о +32.1 +10.2 26 +32 +32 жарко 1011.1 1010.3
10 18.05 СЗ 3 н/о н/о +28.7 +12.2 36 +30 +30 жарко 1011.7 1010.9
12 18.05 З 2 н/о н/о +24.6 +14.1 52 +27 +27 жарко 1013.2 1012.4
13 18.05 Ю 2 н/о н/о +23.1 +10.9 46 +25 +25 комфорт 1013.6 1012.8 +38.2
15 18.05 ЮВ 3 н/о н/о +21.4 +8.7 44 +23 +23 комфорт 1013.8 1013.0
16 18.05 Ю 3 н/о н/о +21.6 +6.7 38 +22 +22 комфорт 1013.7 1012.9
18 18.05 Ю 4 н/о н/о +19.9 +7.6 45 +21 +21 комфорт 1013.7 1012.9
19 18.05 Ю 4 н/о н/о +19.1 +7.5 47 +20 +20 1013.8 1013.0
21 18.05 ЮВ 3 н/о н/о +18.0 +5.6 44 +18 +18 1014.2 1013.4
22 18.05 Ю 1 н/о н/о +16.7 +7.1 53 +18 +18 1014.7 1013.9
00 19.05 Ю 4 н/о н/о +24.9 +3.0 24 +24 +24 комфорт 1015.2 1014.4
01 19.05 Ю 5 н/о н/о +28.7 +3.5 20 +27 +27 жарко 1015.4 1014.6 +16.2
03 19.05 ЮВ 7 н/о н/о +36.4 +9.1 19 +35 +35 очень
жарко
1014.1 1013.3
04 19.05 ЮВ 8 н/о н/о +36.5 +11.3 22 +36 +36 очень
жарко
1013.1 1012.3
06 19.05 ЮВ 7 н/о н/о +37.0 +10.3 20 +36 +36 очень
жарко
1011.1 1010.3
07 19.05 В 5 н/о 4/0
[]
+37.0 +9.6 19 +36 +38 очень
жарко
1010.9 1010.1
09 19.05 Ю 5 н/о н/о +35.6 +8.4 19 +34 +34 очень
жарко
1011.3 1010.5
01 20.05 СВ 4 н/о н/о +31.9 +19.2 47 +37 +37 очень
душно
1015.7 1014.9
03 20.05 СЗ 2 н/о н/о +35.4 +17.1 34 +38 +38 очень
душно
1014.4 1013.6
04 20.05 СЗ 6 н/о 3/0 2000 м
[]
+34.8 +18.0 37 +39 +44 очень
душно
1013.6 1012.8
06 20.05 СЗ 7 н/о н/о +34.2 +16.5 35 +37 +37 очень
душно
1012.2 1011.4
07 20.05 СЗ 7 н/о н/о +33.9 +17.6 38 +38 +38 очень
душно
1012.1 1011.3
09 20.05 З 3 н/о н/о +31.2 +19.2 49 +37 +37 очень
душно
1012.8 1012.0
10 20.05 СЗ 3 н/о 9/0
[]
+29.6 +19.6 55 +36 +36 очень
душно
1013.0 1012.2
12 20.05 СВ 5 н/о н/о +29.0 +19.6 57 +35 +35 очень
душно
1014.5 1013.7
13 20.05 С 2 н/о 10/0
[]
+28.8 +18.9 55 +34 +34 очень
душно
1014.9 1014.1
15 20.05 З 3 н/о н/о +27.2 +19.0 61 +32 +32 очень
душно
1014.5 1013.7
16 20.05 Ю 4 н/о 10/0
[]
+27.2 +19.0 61 +32 +32 очень
душно
1014.3 1013.5
18 20.05 Ю 3 н/о н/о +26.2 +17.8 60 +31 +31 очень
душно
1013.9 1013.1
19 20.05 ЮВ 2 н/о 5/0
[]
+25.4 +17.8 63 +30 +30 душно 1013.6 1012.8
21 20.05 ЮЗ 1 н/о н/о +24.4 +17.4 65 +28 +28 душно 1013.8 1013.0
22 20.05 В 1 н/о 6/0
[]
+23.5 +17.9 71 +28 +28 душно 1014.2 1013.4
00 21.05 ЮВ 3 н/о н/о +27.6 +16.9 52 +31 +31 душно 1015.1 1014.3
01 21.05 В 2 н/о н/о +32.3 +18.5 44 +37 +37 очень
душно
1015.5 1014.7
03 21.05 СВ 3 н/о н/о +35.3 +16.6 33 +38 +38 очень
душно
1014.3 1013.5
04 21.05 В 5 н/о 10/0 2000 м
[]
+36.8 +15.8 29 +39 +43 очень
душно
1013.2 1012.4
06 21.05 СЗ 3 н/о н/о +34.8 +17.5 36 +38 +38 очень
душно
1011.7 1010.9
07 21.05 СЗ 4 н/о н/о +35.6 +17.8 35 +39 +39 очень
душно
1011.4 1010.6
09 21.05 СЗ 5 н/о н/о +31.7 +19.7 49 +38 +38 очень
душно
1012.1 1011.3
10 21.05 СЗ 3 н/о 3/0
[]
+29.6 +19.6 55 +36 +36 очень
душно
1012.9 1012.1
12 21.05 ЮВ 2 н/о н/о +27.7 +19.8 62 +34 +34 очень
душно
1013.9 1013.1
13 21.05 ЮВ 1 н/о 10/0
[]
+28.3 +19.8 60 +34 +34 очень
душно
1014.1 1013.3 +37.4
15 21.05 ЮВ 2 н/о н/о +28.9 +14.3 41 +31 +31 жарко 1014.3 1013.5
16 21.05 Ю 3 н/о 5/0
[]
+27.0 +15.1 48 +30 +30 душно 1014.1 1013.3
18 21.05 С 2 н/о н/о +26.9 +16.8 54 +31 +31 душно 1013.9 1013.1
19 21.05 ЮВ 3 н/о 6/0
[]
+26.5 +13.9 46 +29 +29 жарко 1013.8 1013.0
21 21.05 В 2 н/о н/о +23.5 +15.8 62 +27 +27 душно 1014.5 1013.7
22 21.05 СВ 4 н/о н/о +24.6 +20.3 77 +30 +30 очень
душно
1015.0 1014.2
00 22.05 СВ 4 н/о н/о +28.8 +20.8 62 +36 +36 очень
душно
1016.6 1015.8
01 22.05 СВ 4 н/о н/о +31.5 +19.2 48 +37 +37 очень
душно
1016.9 1016.1 +23.5
03 22.05 С 4 н/о н/о +34.0 +16.4 35 +37 +37 очень
душно
1015.6 1014.8
04 22.05 СВ 4 н/о н/о +35.7 +14.9 29 +37 +37 душно 1014.7 1013.9
06 22.05 З 4 н/о н/о +35.6 +17.3 34 +39 +39 очень
душно
1012.9 1012.1
07 22.05 З 5 н/о 1/0
[]
+35.9 +16.1 31 +38 +41 очень
душно
1012.4 1011.6
09 22.05 В 4 н/о н/о +35.3 +8.9 20 +34 +34 очень
жарко
1012.9 1012.1
10 22.05 ЮВ 3 н/о н/о +32.2 +9.1 24 +31 +31 жарко 1013.6 1012.8
12 22.05 ЮВ 5 н/о н/о +30.0 +7.8 25 +29 +29 жарко 1014.5 1013.7
13 22.05 ЮВ 5 н/о н/о +29.1 +7.7 26 +28 +28 жарко 1014.8 1014.0 +37.5
15 22.05 ЮВ 4 н/о н/о +26.6 +7.1 29 +26 +26 жарко 1015.1 1014.3
16 22.05 В 5 н/о н/о +28.1 +6.2 25 +27 +27 жарко 1014.9 1014.1
18 22.05 В 6 н/о н/о +29.0 +6.4 24 +28 +28 жарко 1014.7 1013.9
19 22.05 В 6 н/о н/о +28.0 +6.2 25 +27 +27 жарко 1014.9 1014.1
21 22.05 В 4 н/о н/о +26.0 +6.1 28 +26 +26 жарко 1016.2 1015.4
22 22.05 С 3 н/о н/о +22.1 +7.5 39 +23 +23 комфорт 1017.0 1016.2
00 23.05 СЗ 2 н/о н/о +26.2 +9.1 34 +27 +27 жарко 1018.3 1017.5
01 23.05 В 4 н/о н/о +31.7 +6.7 21 +30 +30 жарко 1018.2 1017.4 +21.5

 

Местоположение метеостанции Дерби (Северная территория, Австралия): широта -17.36 долгота 123.66 высота над уровнем моря 7 м.

В архиве по умолчанию представлена погода в Дерби за последнюю неделю. Архивные данные за месяц целиком и за предыдущие месяцы, начиная с января 2011 года, Вы можете получить, выбрав интересующий диапазон дат из раскрывающегося списка и нажав кнопку "Ввод!".


*Определитесь, кто Вы:
робот инопланетянин человек

Внимание! Время в таблицах - всемирное. Для получения местного времени необходимо прибавить поправку, которая равна 9.5 ч.

Смотрите также архив погоды в соседних городах и на ближайших метеорологических станциях:

Погода на Базе ВВС Curtin (Западная Австралия, Австралия) (30 км)
Погода в Робак Запад (Западная Австралия, Австралия) (154 км)
Погода в Бруме (Западная Австралия, Австралия) (165 км)
Погода на Острове Адель (Западная Австралия, Австралия) (213 км)
Погода в Фицрой-Кроссинге (Западная Австралия, Австралия) (221 км)
Погода на Острове Брауз (Западная Австралия, Австралия) (362 км)
Погода в Мандоре (Западная Австралия, Австралия) (397 км)
Погода в Холс Крик (Западная Австралия, Австралия) (435 км)
Погода в Трускотте (Западная Австралия, Австралия) (467 км)
Погода в Калумбуру (Западная Австралия, Австралия) (467 км)

Пояснения к столбцам:

Ветер - указаны скорость ветра в м/с - средняя за 10 мин, порывы в срок и между сроками (в фигурных скобках) и направление, откуда дует ветер: С - северный, СВ - северо-восточный, В - восточный, ЮВ - юго-восточный, Ю - южный, ЮЗ - юго-западный, З - западный, СЗ - северо-западный.
Видимость - горизонтальная дальность видимости в метрах или километрах. При видимости от 1 до 10 км при отсутствии осадков обычно наблюдается дымка, при ухудшении видимости до 1 км и менее - туман. В сухую погоду видимость может ухудшаться дымом, пылью или мглою.
Явления - указаны атмосферные явления, наблюдавшиеся в срок или в последний час перед сроком; фигурными скобками обозначены явления, наблюдавшиеся между сроками (за 1-3 часа до срока); квадратными скобками обозначены град или гололедные отложения с указанием их диаметра в мм.
Облачность - указаны через наклонную черту общая и нижняя облачность в баллах и высота нижней границы облаков в метрах; квадратными скобками обозначены формы облаков: Ci - перистые, Cs - перисто-слоистые, Cc - перисто-кучевые, Ac - высококучевые, As - высокослоистые, Sc - слоисто-кучевые, Ns - слоисто-дождевые, Cu - кучевые, Cb - кучево-дождевые. Подробнее классификацию облаков см. в Атласе облаков (PDF).
T - Температура воздуха - температура, измеренная на высоте 2 м над землей.
Td - Температура точки росы - температура, при понижении до которой содержащийся в воздухе водяной пар достигнет насыщения.
f - Относительная влажность воздуха - влажноcть воздуха, измеренная на высоте 2 м над землей.
Te - Эффективная температура - температура, которую ощущает одетый по сезону человек в тени. Характеристика душности погоды. При расчете учитывается влияние влажности воздуха и скорости ветра на теплоощущения человека.
Tes - Эффективная температура на солнце - температура, которую ощущает человек, с поправкой на солнечный нагрев. Характеристика знойности погоды. Зависит от высоты солнца над горизонтом, облачности и скорости ветра. Ночью, в пасмурную погоду, а также при ветре 12 м/с и более поправка равна нулю.
P - Атмосферное давление - приведенное к уровню моря атмосферное давление.
Po - Атмосферное давление - измеренное на уровне метеостанции атмосферное давление.
Tmin - Минимальная температура - минимум температуры воздуха на высоте 2 м над землей.
Tmax - Максимальная температура - максимум температуры воздуха на высоте 2 м над землей.
R - Количество осадков - Количество выпавших осадков за период времени, мм. При наведении курсора мыши на число - период времени, за который выпало указанное количество осадков.
R24 - Количество осадков - Количество выпавших осадков за 24 часа, мм.
S - Снежный покров - Высота снежного покрова, см. При наведении курсора мыши на число - состояние снежного покрова и степень покрытия местности в баллах.